Other Surface Observations
Issued by NWS Tucson, AZ

Home | Current Version | Previous Version | Text Only | Print | Product List | Glossary On
Versions: 1 2 3 4 5 6 7 8 9 10 11 12 13 14 15 16 17 18 19 20 21 22 23 24 25 26 27 28 29 30 31 32 33 34 35 36 37 38 39 40 41 42 43 44 45 46 47 48 49 50
000
SXUS55 KTWC 212115
OSOTWC

WEATHER ROUNDUP FOR SOUTHEAST ARIZONA
NATIONAL WEATHER SERVICE TUCSON AZ
215 PM MST SUN DEC 21 2014

AZZ504>506-514-212215-
LOCATION       SKY/WX    TMP DP  RH WIND       PRES   REMARKS
TUCSON         SUNNY     61  33  35 N7        30.08R
DAVIS-MONTHAN  SUNNY     59  31  34 N6        30.05R
CHILDRENS PARK N/A       57  36  45 S4                PIMA CO DEQ
ALVERNON/22ND  N/A      N/A N/A N/A N/A               PIMA CO DEQ
CHERRY/GLENN   N/A      N/A N/A N/A N/A               PIMA CO DEQ
TANGERINE      N/A       59 N/A N/A S3                PIMA CO DEQ
CONTL RANCH    N/A       61  38  43 SE1               PIMA CO DEQ
GRANT/1ST      N/A       59  36  42 S3                PIMA CO DEQ
CRAYCROFT/22ND N/A      N/A N/A N/A N/A               PIMA CO DEQ
GOLFLINKS/KOLB N/A       58  34  40 S3                PIMA CO DEQ
AJO/12TH       N/A       59  36  42 S7                PIMA CO DEQ
SAGUARO EAST   N/A      N/A N/A N/A N/A               PIMA CO DEQ
FAIRGROUNDS    N/A       59 N/A N/A SW2               PIMA CO DEQ
SAGUARO        N/A       62  35  36 W4                *SABINO CYN
SAN CARLOS     N/A       58  37  45 SE2               *SAN CARLOS
GREEN VALLEY   N/A       61  31  32 SE1               PIMA CO DEQ
HORSE CAMP CYN N/A       53  30  41 W9G12             *ARAVAIPA CYN
RINCON MTNS    N/A       53  24  32 W3G11             *NR MANNING CAMP
$$

AZZ509>511-212215-
LOCATION       SKY/WX    TMP DP  RH WIND       PRES   REMARKS
SAFFORD        SUNNY     55  37  50 W7        30.02F
STRAY HORSE    N/A       48  29  48 W7G13             *
TRAIL CABIN    N/A       53  27  37 W6G13             *N OF GRANVILLE
BLACK HILLS    N/A       58  31  36 NW11G16           *N OF FT THOMAS
DRY LAKE       N/A       49  26  41 NW4G10            *NATANES MTNS
NOON CREEK     N/A       54  37  53 NE3G10            *PINALENO MTNS
COLUMBINE      N/A       50  16  25 NW6G14            *PINALENO MTNS
GUTHRIE        N/A       48  24  38 W11G21            *SW OF GUTHRIE
$$

AZZ502-503-513-212215-
LOCATION       SKY/WX    TMP DP  RH WIND       PRES   REMARKS
NOGALES        SUNNY     64  33  31 NW6       30.03F
SELLS          N/A       63  38  40 W7G10             *
SASABE         N/A       63  36  36 NW4               *ALTAR VLY
HOPKINS        N/A       55  33  43 W5                *SANTA RITA MTNS
CARR CYN       N/A       54  31  42 E2                *W OF HEREFORD
$$

AZZ507-508-512-212215-
LOCATION       SKY/WX    TMP DP  RH WIND       PRES   REMARKS
SIERRA VISTA   SUNNY     60  28  29 NE9       30.06F
DOUGLAS        PTSUNNY   54  27  35 W3        30.06F
EMPIRE MTNS    N/A       63  30  29 NW7G17            *LAS CIENEGAS NCA
MULESHOE RANCH N/A       55  32  42 S2                *PRESERVE
HEADQUARTERS   N/A       57  27  32 W5G11             *CHIRICAHUA MTNS
$$

.............................NOTES.............................
THIS IS AN AUTOMATED COLLECTIVE WITH MINIMAL QUALITY CONTROL.
PIMA CO DEQ SITES HAVE NONSTANDARD WIND SENSOR HEIGHTS.
PIMA CO DEQ SITES DO NOT REPORT WIND GUSTS.
* INDICATES WIND SENSORS LOCATED AT 20 FEET INSTEAD OF 33 FEET.
..............................KEY..............................
SKY/WX - SKY CONDITION/WEATHER
TMP    - TEMPERATURE IN FAHRENHEIT
DP     - DEWPOINT IN FAHRENHEIT
RH     - RELATIVE HUMIDITY IN PERCENT
WIND   - DIRECTION AND SPEED IN MILES PER HOUR (MPH)
VRB    - VARIABLE WIND DIRECTION
PRES   - MEAN SEA LEVEL PRESSURE IN INCHES OF MERCURY
         F - FALLING PRESSURE   R - RISING PRESSURE
         S - STEADY PRESSURE
VSB    - VISIBILITY IN MILES
HX     - HEAT INDEX IN FAHRENHEIT
WCI    - WIND CHILL INDEX IN FAHRENHEIT
N/A    - NOT AVAILABLE
AFB    - AIR FORCE BASE
         DAVIS-MONTHAN IS DAVIS-MONTHAN AIR FORCE BASE
CYN    - CANYON
MTNS   - MOUNTAINS
NCA    - NATIONAL CONSERVATION AREA
NR     - NEAR
VLY    - VALLEY
CONTL  - CONTINENTAL
PIMA CO DEQ - PIMA COUNTY DEPT OF ENVIRONMENTAL QUALITY



USA.gov is the U.S. government's official web portal to all federal, state and local government web resources and services.